Date String (YYYY-MM-DD hh:mm:ss) UTC,Instrument flags,absolute air pressure of the measurement (hPa),sample flow rate (lpm),inlet stack bypass flow (lpm),air temperature of the measurement (°C),ambient temperature measured by the external sensor (°C),aerosol sample conditioner tube jacket temperature (°C),OPC LED temperature (°C),internal box temperature (°C),relative humidity of the measurement (%),span deviation,mass concentration of particles derived from Lorenz-Mie calculation of OPC scattering (μg/m³),mass concentration of particles derived from Lorenz-Mie calculation of OPC scattering (μg/m³),mass concentration of particles derived from Lorenz-Mie calculation of OPC scattering (μg/m³)
DateTimeUTC,F1_M11,P_M11,Q1_M11,Q2_M11,T1_M11,T2_M11,T3_M11,T4_M11,T5_M11,U1_M11,ZSPAN_M11,X2_M11,X0_M11,X1_M11
2024-02-13 14:00:00,SystemResetWarning,0826.8,5.00,000.00,018.2,017.6,000.0,026.8,020.0,15.1,0000.0,0005.98,0010.94,0005.68
2024-02-13 14:01:00,SystemResetWarning,0826.8,5.00,000.00,018.2,017.6,000.0,026.8,020.0,15.2,0000.0,0005.99,0011.78,0005.68
2024-02-13 14:02:00,SystemResetWarning,0826.8,4.99,000.00,018.2,017.6,000.0,026.8,020.0,15.1,0000.0,0005.98,0011.86,0005.66
2024-02-13 14:03:00,SystemResetWarning,0826.8,5.00,000.00,018.3,017.6,000.0,026.8,020.0,14.8,0000.0,0005.97,0011.75,0005.64
2024-02-13 14:04:00,SystemResetWarning,0826.8,5.00,000.00,018.3,017.6,000.0,026.8,020.0,14.3,0000.0,0005.95,0011.73,0005.63
2024-02-13 14:05:00,SystemResetWarning,0826.8,4.99,000.00,018.2,017.6,000.0,026.8,020.0,13.7,0000.0,0005.95,0011.25,0005.62
2024-02-13 14:06:00,SystemResetWarning,0826.8,5.00,000.00,018.2,017.6,000.0,026.8,020.0,13.1,0000.0,0005.98,0011.10,0005.65
2024-02-13 14:07:00,SystemResetWarning,0826.7,5.00,000.00,018.2,017.6,000.0,026.9,020.0,12.5,0000.0,0006.03,0010.81,0005.70
2024-02-13 14:08:00,SystemResetWarning,0826.8,5.00,000.00,018.2,017.6,000.0,026.9,020.0,12.8,0000.0,0006.05,0010.80,0005.73
2024-02-13 14:09:00,SystemResetWarning,0826.8,5.00,000.00,018.3,017.6,000.0,026.8,020.0,13.1,0000.0,0006.01,0011.39,0005.71
2024-02-13 14:10:00,SystemResetWarning,0826.9,5.00,000.00,018.3,017.6,000.0,026.8,020.0,13.7,0000.0,0005.98,0012.05,0005.65
2024-02-13 14:11:00,SystemResetWarning,0826.9,5.01,000.00,018.2,017.6,000.0,026.9,020.0,13.3,0000.0,0005.90,0011.47,0005.54
2024-02-13 14:12:00,SystemResetWarning,0826.9,5.00,000.00,018.3,017.6,000.0,026.8,020.0,13.7,0000.0,0005.75,0010.73,0005.39
2024-02-13 14:13:00,SystemResetWarning,0826.9,5.00,000.00,018.2,017.6,000.0,026.8,020.0,14.0,0000.0,0005.54,0010.17,0005.17
2024-02-13 14:14:00,SystemResetWarning,0826.8,5.00,000.00,018.2,017.6,000.0,026.8,020.0,14.0,0000.0,0005.33,0010.21,0004.94
2024-02-13 14:15:00,SystemResetWarning,0826.8,5.00,000.00,018.2,017.5,000.0,026.8,020.0,13.7,0000.0,0005.15,0010.02,0004.75
2024-02-13 14:16:00,SystemResetWarning,0826.9,4.99,000.00,018.2,017.5,000.0,026.8,020.0,13.8,0000.0,0005.03,0010.06,0004.62
2024-02-13 14:17:00,SystemResetWarning,0826.9,4.99,000.00,018.2,017.5,000.0,026.8,020.0,13.6,0000.0,0004.92,0010.05,0004.49
2024-02-13 14:18:00,SystemResetWarning,0826.9,5.00,000.00,018.2,017.5,000.0,026.8,020.0,13.3,0000.0,0004.76,0009.82,0004.36
2024-02-13 14:19:00,SystemResetWarning,0826.9,5.01,000.00,018.2,017.5,000.0,026.8,020.0,13.0,0000.0,0004.67,0009.80,0004.26
2024-02-13 14:20:00,SystemResetWarning,0826.8,5.01,000.00,018.2,017.5,000.0,026.8,020.0,12.9,0000.0,0004.61,0009.34,0004.19
2024-02-13 14:21:00,SystemResetWarning,0826.8,5.01,000.00,018.2,017.5,000.0,026.8,020.0,12.8,0000.0,0004.54,0008.43,0004.13
2024-02-13 14:22:00,SystemResetWarning,0826.8,4.99,000.00,018.2,017.7,000.0,026.9,020.2,12.4,0000.0,0004.49,0008.11,0004.12
2024-02-13 14:23:00,SystemResetWarning,0826.9,5.01,000.00,018.4,018.4,000.0,027.0,020.6,12.4,0000.0,0004.52,0008.74,0004.15
2024-02-13 14:24:00,SystemResetWarning,0826.9,4.98,000.00,018.6,018.8,000.0,027.0,020.8,12.2,0000.0,0004.60,0009.24,0004.25
2024-02-13 14:25:00,SystemResetWarning,0826.9,5.00,000.00,018.6,018.7,000.0,026.9,020.6,12.1,0000.0,0004.64,0009.18,0004.31
2024-02-13 14:26:00,SystemResetWarning,0826.8,5.00,000.00,018.6,018.6,000.0,026.9,020.5,12.2,0000.0,0004.63,0009.09,0004.30
2024-02-13 14:27:00,SystemResetWarning,0826.8,5.01,000.00,018.6,018.4,000.0,026.9,020.4,12.3,0000.0,0004.58,0009.38,0004.27
2024-02-13 14:28:00,SystemResetWarning,0826.8,5.00,000.00,018.6,018.3,000.0,026.9,020.3,12.3,0000.0,0004.48,0009.12,0004.20
2024-02-13 14:29:00,SystemResetWarning,0826.8,4.99,000.00,018.5,018.2,000.0,026.9,020.2,12.2,0000.0,0004.40,0009.03,0004.12
2024-02-13 14:30:00,SystemResetWarning,0827.0,4.99,000.00,018.5,018.1,000.0,026.9,020.2,12.6,0000.0,0004.26,0009.28,0003.99
2024-02-13 14:31:00,SystemResetWarning,0827.0,4.99,000.00,018.5,018.1,000.0,026.9,020.2,14.6,0000.0,0004.12,0009.43,0003.86
2024-02-13 14:32:00,SystemResetWarning,0826.9,5.00,000.00,018.5,018.0,000.0,026.9,020.2,15.2,0000.0,0003.98,0009.69,0003.74
2024-02-13 14:33:00,SystemResetWarning,0827.0,5.00,000.00,018.5,018.0,000.0,026.9,020.2,15.2,0000.0,0003.89,0009.61,0003.66
2024-02-13 14:34:00,SystemResetWarning,0827.0,5.01,000.00,018.4,018.0,000.0,026.9,020.1,15.1,0000.0,0003.78,0008.80,0003.55
2024-02-13 14:35:00,SystemResetWarning,0826.9,5.01,000.00,018.4,017.9,000.0,026.9,020.1,15.1,0000.0,0003.68,0008.25,0003.46
2024-02-13 14:36:00,SystemResetWarning,0827.0,5.00,000.00,018.4,017.9,000.0,026.9,020.1,15.2,0000.0,0003.61,0007.77,0003.39
2024-02-13 14:37:00,SystemResetWarning,0826.9,5.00,000.00,018.4,017.9,000.0,026.9,020.1,15.3,0000.0,0003.68,0007.81,0003.47
2024-02-13 14:38:00,SystemResetWarning,0827.0,5.00,000.00,018.4,017.9,000.0,026.9,020.1,15.2,0000.0,0003.80,0007.40,0003.58
2024-02-13 14:39:00,SystemResetWarning,0827.0,5.00,000.00,018.4,017.9,000.0,026.8,020.1,15.1,0000.0,0003.95,0007.53,0003.74
2024-02-13 14:40:00,SystemResetWarning,0827.0,5.00,000.00,018.4,017.9,000.0,026.9,020.1,15.3,0000.0,0004.14,0007.74,0003.92
2024-02-13 14:41:00,SystemResetWarning,0826.9,5.00,000.00,018.4,017.9,000.0,026.8,020.1,15.4,0000.0,0004.32,0007.51,0004.09
2024-02-13 14:42:00,SystemResetWarning,0827.0,5.00,000.00,018.4,017.9,000.0,026.8,020.1,15.2,0000.0,0004.49,0007.32,0004.26
2024-02-13 14:43:00,SystemResetWarning,0826.9,5.00,000.00,018.3,017.9,000.0,026.8,020.1,15.1,0000.0,0004.67,0007.12,0004.43
2024-02-13 14:44:00,SystemResetWarning,0827.0,5.00,000.00,018.3,017.9,000.0,026.8,020.0,14.8,0000.0,0004.85,0007.40,0004.58
2024-02-13 14:45:00,SystemResetWarning,0827.0,5.00,000.00,018.3,017.9,000.0,026.8,020.0,14.6,0000.0,0005.01,0007.51,0004.74
2024-02-13 14:46:00,SystemResetWarning,0827.0,5.00,000.00,018.3,017.8,000.0,026.8,020.0,14.6,0000.0,0005.18,0007.66,0004.90
2024-02-13 14:47:00,SystemResetWarning,0827.1,5.00,000.00,018.3,017.8,000.0,026.8,020.0,14.9,0000.0,0005.38,0008.10,0005.08
2024-02-13 14:48:00,SystemResetWarning,0827.1,5.00,000.00,018.3,017.8,000.0,026.8,020.0,15.2,0000.0,0005.47,0008.31,0005.13
2024-02-13 14:49:00,SystemResetWarning,0827.1,4.99,000.00,018.3,017.8,000.0,026.8,020.0,15.5,0000.0,0005.47,0008.32,0005.14
2024-02-13 14:50:00,SystemResetWarning,0827.1,5.01,000.00,018.3,017.8,000.0,026.8,020.1,16.0,0000.0,0005.51,0008.40,0005.14
2024-02-13 14:51:00,SystemResetWarning,0827.1,5.00,000.00,018.3,017.8,000.0,026.8,020.1,15.6,0000.0,0005.50,0008.47,0005.13
2024-02-13 14:52:00,SystemResetWarning,0827.1,5.01,000.00,018.3,017.8,000.0,026.8,020.1,15.3,0000.0,0005.48,0008.45,0005.11
2024-02-13 14:53:00,SystemResetWarning,0827.1,5.01,000.00,018.3,017.8,000.0,026.8,020.1,15.3,0000.0,0005.47,0008.41,0005.08
2024-02-13 14:54:00,SystemResetWarning,0827.0,4.99,000.00,018.3,017.8,000.0,026.8,020.0,15.4,0000.0,0005.43,0008.37,0005.04
2024-02-13 14:55:00,SystemResetWarning,0827.1,4.99,000.00,018.3,017.8,000.0,026.8,020.0,15.4,0000.0,0005.41,0008.39,0005.01
2024-02-13 14:56:00,SystemResetWarning,0827.0,4.99,000.00,018.3,017.8,000.0,026.8,020.0,15.5,0000.0,0005.38,0008.38,0004.98
2024-02-13 14:57:00,SystemResetWarning,0827.0,5.00,000.00,018.3,017.9,000.0,026.8,020.0,15.2,0000.0,0005.35,0008.31,0004.97
2024-02-13 14:58:00,SystemResetWarning,0827.1,5.00,000.00,018.3,017.8,000.0,026.8,020.1,15.2,0000.0,0005.33,0008.12,0004.98
2024-02-13 14:59:00,SystemResetWarning,0827.1,5.00,000.00,018.3,017.8,000.0,026.8,020.0,15.2,0000.0,0005.32,0008.00,0005.00
